Regional Weather Roundup
Issued by NWS Goodland, KS

Home | Current Version | Previous Version | Text Only | Print | Product List | Glossary Off
Versions: 1 2 3 4 5 6 7 8 9 10 11 12 13 14 15 16 17 18 19 20 21 22 23 24 25 26 27 28 29 30 31 32 33 34 35 36 37 38 39 40 41 42 43 44 45 46 47 48 49 50

000
ASUS43 KGLD 280208
RWRGLD

GOODLAND FORECAST AREA HOURLY WEATHER ROUNDUP
NATIONAL WEATHER SERVICE GOODLAND KS
700 PM MST TUE JAN 27 2015

...OFFICIAL OBSERVATIONS...

CITY           SKY/WX    TMP DP  RH WIND       PRES   REMARKS
GOODLAND KS    CLOUDY    53  29  39 S9        29.98S
HILL CITY KS   CLEAR     47  28  47 CALM      29.93F
IMPERIAL NEB   MOCLDY    51  27  39 CALM      29.94S
MCCOOK NEB     PTCLDY    52  31  44 S5        29.92S
AKRON CO       PTCLDY    56  26  31 SE6       29.97F
BURLINGTON CO  PTCLDY    50  30  46 S14       29.99S
LIMON CO       CLEAR     34  23  64 CALM      30.02F
$$

...UNOFFICIAL OBSERVATIONS...

CITY           SKY/WX    TMP DP  RH WIND       PRES   REMARKS
COLBY KS       CLEAR     48  32  53 S8        29.96F
GOVE KS          N/A     48  32  54 MISG        N/A
NORTON KS      CLEAR     48  27  43 CALM      29.92S
SHARON SPRINGS   N/A     52  30  42 S12         N/A
KIT CARSON CO    N/A     46  28  48 MISG        N/A
YUMA CO          N/A     49  30  48 S6          N/A
$$



USA.gov is the U.S. government's official web portal to all federal, state and local government web resources and services.